AIC131 EDDV-EDDP

Flight info

Callsign AIC131
Flight time N/A
Altitude 21000
Route POVEL2H POVEL Z94 KENIG T959 KOJEC KOJEC1V
Aircraft A320/M-SDE3FGHIRWY/LB1

Departure

Time 2026-05-01 10:36
Airport Hannover Airport (EDDV)

Arrival

Time N/A
Airport Leipzig/Halle Airport (EDDP)
Time Latitude Longitude Altitude Speed Heading
2026-05-01 10:09 52.45774 9.69588 181 ft 0 kts 53°
2026-05-01 10:23 52.45773 9.69585 181 ft 1 kts 53°
2026-05-01 10:23 52.45768 9.69575 181 ft 1 kts 53°
2026-05-01 10:24 52.45738 9.69515 182 ft 3 kts 49°
2026-05-01 10:24 52.45701 9.69494 183 ft 3 kts 316°
2026-05-01 10:25 52.45693 9.69515 183 ft 0 kts 268°
2026-05-01 10:28 52.45694 9.69508 183 ft 2 kts 279°
2026-05-01 10:28 52.45754 9.69385 181 ft 14 kts 289°
2026-05-01 10:28 52.45752 9.69209 179 ft 17 kts 244°
2026-05-01 10:29 52.45630 9.69032 181 ft 12 kts 263°
2026-05-01 10:29 52.45629 9.68889 182 ft 13 kts 272°
2026-05-01 10:30 52.45637 9.68549 181 ft 18 kts 272°
2026-05-01 10:30 52.45650 9.68144 182 ft 19 kts 273°
2026-05-01 10:31 52.45641 9.67757 181 ft 11 kts 233°
2026-05-01 10:31 52.45499 9.67797 181 ft 15 kts 110°
2026-05-01 10:32 52.45495 9.67857 181 ft 0 kts 88°
2026-05-01 10:35 52.45491 9.68038 181 ft 51 kts 93°
2026-05-01 10:35 52.45463 9.69105 187 ft 131 kts 94°
2026-05-01 10:36 52.45398 9.72930 1050 ft 178 kts 91°
2026-05-01 10:36 52.45395 9.75007 1809 ft 185 kts 89°
2026-05-01 10:36 52.45412 9.77157 2548 ft 192 kts 89°
2026-05-01 10:37 52.45446 9.79382 3328 ft 198 kts 88°
2026-05-01 10:37 52.45508 9.84250 4141 ft 229 kts 95°
2026-05-01 10:37 52.45297 9.86832 3977 ft 226 kts 99°
2026-05-01 10:38 52.45062 9.89363 3785 ft 224 kts 97°
2026-05-01 10:38 52.44880 9.91900 3536 ft 226 kts 96°
2026-05-01 10:38 52.44470 9.94431 3749 ft 232 kts 115°
2026-05-01 10:38 52.43665 9.96692 4677 ft 227 kts 122°
2026-05-01 10:39 52.42862 9.98919 5661 ft 230 kts 120°
2026-05-01 10:39 52.42031 10.01297 6213 ft 251 kts 120°
2026-05-01 10:39 52.41127 10.03887 6720 ft 273 kts 120°
2026-05-01 10:39 52.40146 10.06697 7197 ft 295 kts 120°
2026-05-01 10:40 52.39087 10.09724 7648 ft 318 kts 120°
2026-05-01 10:40 52.37966 10.12925 8365 ft 327 kts 120°
2026-05-01 10:40 52.36774 10.16121 9247 ft 331 kts 126°
2026-05-01 10:40 52.35811 10.18058 9827 ft 333 kts 132°
2026-05-01 10:41 52.34190 10.20792 10674 ft 337 kts 136°
2026-05-01 10:41 52.32495 10.23490 11491 ft 342 kts 136°
2026-05-01 10:41 52.29045 10.28972 13065 ft 350 kts 136°
2026-05-01 10:42 52.27290 10.31757 13826 ft 354 kts 136°
2026-05-01 10:42 52.25513 10.34575 14587 ft 358 kts 136°
2026-05-01 10:42 52.23719 10.37418 15316 ft 362 kts 136°
2026-05-01 10:42 52.21901 10.40297 16022 ft 366 kts 136°
2026-05-01 10:43 52.20064 10.43203 16709 ft 370 kts 136°
2026-05-01 10:43 52.18209 10.46137 17376 ft 374 kts 136°
2026-05-01 10:43 52.16335 10.49096 18013 ft 377 kts 136°
2026-05-01 10:43 52.14441 10.52085 18662 ft 381 kts 136°
2026-05-01 10:44 52.12531 10.55098 19282 ft 384 kts 136°
2026-05-01 10:44 52.10602 10.58137 19890 ft 388 kts 136°
2026-05-01 10:44 52.08652 10.61207 20478 ft 392 kts 136°
2026-05-01 10:44 52.06684 10.64303 20892 ft 395 kts 136°
2026-05-01 10:45 52.04706 10.67412 20909 ft 395 kts 136°
2026-05-01 10:45 52.02739 10.70501 20695 ft 392 kts 136°
2026-05-01 10:45 52.00780 10.73578 20242 ft 391 kts 136°
2026-05-01 10:45 51.98831 10.76635 19730 ft 388 kts 136°
2026-05-01 10:46 51.96902 10.79658 19217 ft 384 kts 136°
2026-05-01 10:46 51.95132 10.82882 18672 ft 381 kts 130°
2026-05-01 10:46 51.93449 10.86185 18140 ft 379 kts 129°
2026-05-01 10:46 51.91782 10.89467 17606 ft 376 kts 129°
2026-05-01 10:47 51.90130 10.92716 17173 ft 371 kts 129°
2026-05-01 10:47 51.88493 10.95926 17030 ft 371 kts 130°
2026-05-01 10:47 51.86842 10.99159 17000 ft 373 kts 130°
2026-05-01 10:47 51.85186 11.02395 16999 ft 373 kts 130°
2026-05-01 10:48 51.83532 11.05625 16999 ft 373 kts 130°
2026-05-01 10:48 51.81876 11.08854 17000 ft 373 kts 130°
2026-05-01 10:48 51.80221 11.12073 17001 ft 373 kts 130°
2026-05-01 10:48 51.78564 11.15295 17000 ft 373 kts 130°
2026-05-01 10:49 51.76904 11.18516 17001 ft 373 kts 130°
2026-05-01 10:49 51.75245 11.21734 17000 ft 373 kts 130°
2026-05-01 10:49 51.73589 11.24939 16927 ft 371 kts 130°
2026-05-01 10:49 51.71938 11.28132 16600 ft 370 kts 130°
2026-05-01 10:50 51.70299 11.31298 16154 ft 367 kts 130°
2026-05-01 10:50 51.68662 11.34457 15622 ft 365 kts 130°
2026-05-01 10:50 51.67042 11.37579 15121 ft 362 kts 130°
2026-05-01 10:50 51.65429 11.40684 14617 ft 360 kts 130°
2026-05-01 10:51 51.63828 11.43760 14106 ft 357 kts 130°
2026-05-01 10:51 51.62259 11.46770 13624 ft 354 kts 130°
2026-05-01 10:51 51.60784 11.49917 13121 ft 352 kts 119°
2026-05-01 10:51 51.59879 11.53538 12600 ft 350 kts 101°
2026-05-01 10:52 51.59769 11.57424 12097 ft 347 kts 88°
2026-05-01 10:52 51.59875 11.61288 11604 ft 344 kts 87°
2026-05-01 10:52 51.59981 11.65120 11130 ft 342 kts 87°
2026-05-01 10:52 51.60087 11.68924 10646 ft 340 kts 87°
2026-05-01 10:53 51.60191 11.72705 10212 ft 336 kts 87°
2026-05-01 10:53 51.60295 11.76437 10044 ft 335 kts 87°
2026-05-01 10:53 51.60398 11.80198 9998 ft 337 kts 87°
2026-05-01 10:53 51.60501 11.83957 9998 ft 337 kts 87°
2026-05-01 10:54 51.60622 11.87709 9982 ft 334 kts 85°
2026-05-01 10:54 51.60883 11.91379 9907 ft 325 kts 80°
2026-05-01 10:54 51.61308 11.94888 9806 ft 313 kts 78°
2026-05-01 10:54 51.61730 11.98255 9687 ft 301 kts 78°
2026-05-01 10:55 51.62136 12.01488 9515 ft 292 kts 78°
2026-05-01 10:55 51.62530 12.04636 9386 ft 281 kts 78°
2026-05-01 10:55 51.62913 12.07687 9077 ft 277 kts 78°
2026-05-01 10:55 51.63294 12.10720 8722 ft 275 kts 78°
2026-05-01 10:56 51.63672 12.13738 8372 ft 274 kts 78°
2026-05-01 10:56 51.64048 12.16741 8026 ft 273 kts 78°
2026-05-01 10:56 51.64421 12.19724 7663 ft 271 kts 78°
2026-05-01 10:56 51.64793 12.22698 7319 ft 270 kts 78°
2026-05-01 10:57 51.65162 12.25651 6971 ft 269 kts 78°
2026-05-01 10:57 51.65530 12.28599 6635 ft 267 kts 78°
2026-05-01 10:57 51.65895 12.31524 6305 ft 266 kts 78°
2026-05-01 10:57 51.66258 12.34440 5970 ft 265 kts 78°
2026-05-01 10:58 51.66619 12.37341 5633 ft 264 kts 78°
2026-05-01 10:58 51.66979 12.40228 5292 ft 262 kts 78°
2026-05-01 10:58 51.67336 12.43107 4966 ft 261 kts 78°
2026-05-01 10:58 51.67691 12.45966 4632 ft 260 kts 78°
2026-05-01 10:59 51.68045 12.48817 4301 ft 259 kts 78°
2026-05-01 10:59 51.68396 12.51651 3962 ft 258 kts 78°
2026-05-01 10:59 51.68746 12.54476 3719 ft 257 kts 78°
2026-05-01 10:59 51.69092 12.57267 3565 ft 252 kts 78°
2026-05-01 11:00 51.69441 12.60088 3562 ft 258 kts 78°
2026-05-01 11:00 51.69639 12.62897 3568 ft 255 kts 96°
2026-05-01 11:00 51.69066 12.65480 3567 ft 239 kts 127°
2026-05-01 11:00 51.67920 12.67265 3560 ft 221 kts 147°
2026-05-01 11:01 51.66619 12.68423 3563 ft 212 kts 153°
2026-05-01 11:01 51.65293 12.69507 3570 ft 214 kts 154°
2026-05-01 11:01 51.63970 12.70588 3569 ft 213 kts 154°
2026-05-01 11:01 51.62633 12.71610 3564 ft 213 kts 159°
2026-05-01 11:02 51.61255 12.72470 3563 ft 212 kts 160°
2026-05-01 11:02 51.59879 12.73340 3570 ft 213 kts 154°
2026-05-01 11:02 51.58547 12.74376 3567 ft 213 kts 158°
2026-05-01 11:02 51.57167 12.75240 3573 ft 213 kts 160°
2026-05-01 11:03 51.55784 12.76086 3576 ft 213 kts 160°
2026-05-01 11:03 51.54400 12.76932 3567 ft 214 kts 160°
2026-05-01 11:03 51.53010 12.77773 3565 ft 212 kts 163°
2026-05-01 11:03 51.51563 12.77888 3553 ft 209 kts 197°
2026-05-01 11:04 51.50341 12.76716 3319 ft 207 kts 225°
2026-05-01 11:04 51.49351 12.75045 2987 ft 205 kts 227°
2026-05-01 11:04 51.48387 12.73378 2655 ft 201 kts 227°
2026-05-01 11:04 51.47411 12.71691 2570 ft 208 kts 227°
2026-05-01 11:05 51.46435 12.70004 2573 ft 208 kts 227°
2026-05-01 11:05 51.45494 12.68249 2567 ft 206 kts 238°
2026-05-01 11:05 51.44794 12.66230 2562 ft 206 kts 250°
2026-05-01 11:05 51.44432 12.64008 2576 ft 208 kts 258°
2026-05-01 11:06 51.44172 12.61812 2576 ft 187 kts 260°
2026-05-01 11:06 51.43954 12.59919 2571 ft 159 kts 259°
2026-05-01 11:06 51.43749 12.58118 2561 ft 161 kts 260°
2026-05-01 11:07 51.43391 12.54858 2559 ft 138 kts 260°
2026-05-01 11:07 51.43230 12.53334 2557 ft 139 kts 261°
2026-05-01 11:07 51.43080 12.51810 2579 ft 141 kts 262°
2026-05-01 11:07 51.42940 12.50291 2573 ft 137 kts 262°
2026-05-01 11:08 51.42807 12.48752 2555 ft 137 kts 262°
2026-05-01 11:08 51.42683 12.47229 2585 ft 142 kts 263°
2026-05-01 11:08 51.42452 12.44170 2569 ft 138 kts 263°
2026-05-01 11:09 51.42346 12.42640 2539 ft 139 kts 264°
2026-05-01 11:09 51.42242 12.41093 2394 ft 140 kts 264°
2026-05-01 11:09 51.42146 12.39541 2179 ft 137 kts 264°
2026-05-01 11:10 51.41967 12.36506 1832 ft 137 kts 265°